QPF
0.00 0.00 0.00 0.00 0.00 0.00 0.00 0.00 0.00 0.00 0.00 0.00 0.00 0.00 0.00 0.00 0.00 0.00 0.00 0.00 0.00 0.00 0.00 0.00 0.00 0.00 0.00 0.00 0.00 0.00 0.00 0.00 0.00 0.00 0.00 0.00 0.00 0.00 0.00 0.00 0.00 0.00 0.00 0.01
0.00 0.00 0.00 0.00 0.00 0.00 0.00 0.00 0.00 0.00 0.00 0.00 0.00 0.00 0.00 0.00 0.00 0.00 0.00 0.00 0.00 0.00 0.00 0.00 0.00 0.00 0.00 0.00 0.00 0.00 0.00 0.00 0.00 0.00 0.00 0.00 0.00 0.00 0.00 0.00 0.00 0.00 0.00 0.01
0.00 0.00 0.00 0.00 0.00 0.00 0.00 0.00 0.00 0.00 0.00 0.00 0.00 0.00 0.00 0.00 0.00 0.00 0.00 0.00 0.00 0.00 0.00 0.00 0.00 0.00 0.00 0.00 0.00 0.00 0.00 0.00 0.00 0.00 0.00 0.00 0.00 0.00 0.00 0.00 0.00 0.00 0.00 0.00
0.00 0.00 0.00 0.00 0.00 0.00 0.00 0.00 0.00 0.00 0.00 0.00 0.00 0.00 0.00 0.00 0.00 0.00 0.00 0.00 0.00 0.00 0.00 0.00 0.00 0.00 0.00 0.00 0.00 0.00 0.00 0.00 0.00 0.00 0.00 0.00 0.00 0.00 0.00 0.01 0.01 0.01 0.01 0.01
0.00 0.00 0.00 0.00 0.00 0.00 0.00 0.00 0.00 0.00 0.00 0.00 0.00 0.00 0.00 0.00 0.00 0.00 0.00 0.00 0.00 0.00 0.00 0.00 0.00 0.00 0.00 0.00 0.00 0.00 0.00 0.00 0.00 0.00 0.00 0.00 0.00 0.01 0.02 0.02 0.02 0.02 0.02 0.02
0.00 0.00 0.00 0.00 0.00 0.00 0.00 0.00 0.00 0.00 0.00 0.00 0.00 0.00 0.00 0.00 0.00 0.00 0.00 0.00 0.00 0.00 0.00 0.00 0.00 0.00 0.00 0.00 0.00 0.00 0.00 0.00 0.00 0.00 0.00 0.00 0.00 0.00 0.01 0.01 0.01 0.01 0.01 0.01
0.00 0.00 0.00 0.00 0.00 0.00 0.00 0.00 0.00 0.00 0.00 0.00 0.00 0.00 0.00 0.00 0.00 0.00 0.00 0.00 0.00 0.00 0.00 0.00 0.00 0.00 0.00 0.00 0.00 0.00 0.00 0.00 0.00 0.00 0.00 0.00 0.00 0.00 0.01 0.01 0.01 0.01 0.01 0.01
0.00 0.00 0.00 0.00 0.00 0.00 0.00 0.00 0.00 0.00 0.00 0.00 0.00 0.00 0.00 0.00 0.00 0.00 0.00 0.00 0.00 0.00 0.00 0.00 0.00 0.00 0.00 0.00 0.00 0.00 0.00 0.00 0.00 0.00 0.00 0.00 0.00 0.00 0.01 0.01 0.01 0.01 0.02 0.02
0.00 0.00 0.00 0.00 0.00 0.00 0.00 0.00 0.00 0.00 0.00 0.00 0.00 0.00 0.00 0.00 0.00 0.00 0.00 0.00 0.00 0.00 0.00 0.00 0.00 0.00 0.00 0.00 0.00 0.00 0.00 0.00 0.00 0.00 0.00 0.00 0.00 0.00 0.00 0.01 0.01 0.01 0.03 0.04
0.00 0.00 0.00 0.00 0.00 0.00 0.00 0.00 0.00 0.00 0.00 0.00 0.00 0.00 0.00 0.00 0.00 0.00 0.00 0.00 0.00 0.00 0.00 0.00 0.00 0.00 0.00 0.00 0.00 0.00 0.00 0.00 0.00 0.00 0.00 0.00 0.00 0.00 0.00 0.00 0.00 0.01 0.02 0.03
0.00 0.00 0.00 0.00 0.00 0.00 0.00 0.00 0.00 0.00 0.00 0.00 0.00 0.00 0.00 0.00 0.00 0.00 0.00 0.00 0.00 0.00 0.00 0.00 0.00 0.00 0.00 0.00 0.00 0.00 0.00 0.00 0.00 0.00 0.00 0.00 0.00 0.00 0.00 0.00 0.00 0.00 0.00 0.01
0.00 0.00 0.00 0.00 0.00 0.00 0.00 0.00 0.00 0.00 0.00 0.00 0.00 0.00 0.00 0.00 0.00 0.00 0.00 0.00 0.00 0.00 0.00 0.00 0.00 0.00 0.00 0.00 0.00 0.00 0.00 0.00 0.00 0.00 0.00 0.00 0.00 0.00 0.00 0.00 0.00 0.00 0.00 0.00
0.00 0.00 0.00 0.00 0.00 0.00 0.00 0.00 0.00 0.00 0.00 0.00 0.00 0.00 0.00 0.00 0.00 0.00 0.00 0.00 0.00 0.00 0.00 0.00 0.00 0.00 0.00 0.00 0.00 0.00 0.00 0.00 0.00 0.00 0.00 0.00 0.00 0.00 0.00 0.00 0.00 0.00 0.00 0.00
0.00 0.00 0.00 0.00 0.00 0.00 0.00 0.00 0.00 0.00 0.00 0.00 0.00 0.00 0.00 0.00 0.00 0.00 0.00 0.00 0.00 0.00 0.00 0.00 0.00 0.00 0.00 0.00 0.00 0.00 0.00 0.00 0.00 0.00 0.00 0.00 0.00 0.00 0.00 0.00 0.00 0.00 0.00 0.00
0.00 0.00 0.00 0.00 0.00 0.00 0.00 0.00 0.00 0.00 0.00 0.00 0.00 0.00 0.00 0.00 0.00 0.00 0.00 0.00 0.00 0.00 0.00 0.00 0.00 0.00 0.00 0.00 0.00 0.00 0.00 0.00 0.00 0.00 0.00 0.00 0.00 0.00 0.00 0.00 0.00 0.00 0.00 0.00
0.00 0.00 0.00 0.00 0.00 0.00 0.00 0.00 0.00 0.00 0.00 0.00 0.00 0.00 0.00 0.00 0.00 0.00 0.00 0.00 0.00 0.00 0.00 0.00 0.00 0.00 0.00 0.00 0.00 0.00 0.00 0.00 0.00 0.00 0.00 0.00 0.00 0.00 0.00 0.00 0.00 0.00 0.00 0.00
0.00 0.00 0.00 0.00 0.00 0.00 0.00 0.00 0.00 0.00 0.00 0.00 0.00 0.00 0.00 0.00 0.00 0.00 0.00 0.00 0.00 0.00 0.00 0.00 0.00 0.00 0.00 0.00 0.00 0.00 0.00 0.00 0.00 0.00 0.00 0.00 0.00 0.00 0.00 0.00 0.00 0.00 0.00 0.00
0.00 0.00 0.00 0.00 0.00 0.00 0.00 0.00 0.00 0.00 0.00 0.00 0.00 0.00 0.00 0.00 0.00 0.00 0.00 0.00 0.00 0.00 0.00 0.00 0.00 0.00 0.00 0.00 0.00 0.00 0.00 0.00 0.00 0.00 0.00 0.00 0.00 0.00 0.00 0.00 0.00 0.00 0.00 0.00
0.00 0.00 0.00 0.00 0.00 0.00 0.00 0.00 0.00 0.00 0.00 0.00 0.00 0.00 0.00 0.00 0.00 0.00 0.00 0.00 0.00 0.00 0.00 0.00 0.00 0.00 0.00 0.00 0.00 0.00 0.00 0.00 0.00 0.00 0.00 0.00 0.00 0.00 0.00 0.00 0.00 0.00 0.00 0.00
0.00 0.00 0.00 0.00 0.00 0.00 0.00 0.00 0.00 0.00 0.00 0.00 0.00 0.00 0.00 0.00 0.00 0.00 0.00 0.00 0.00 0.00 0.00 0.00 0.00 0.00 0.00 0.00 0.00 0.00 0.00 0.00 0.00 0.00 0.00 0.00 0.00 0.00 0.00 0.00 0.00 0.00 0.00 0.00
0.00 0.00 0.00 0.00 0.00 0.00 0.00 0.00 0.00 0.00 0.00 0.00 0.00 0.00 0.00 0.00 0.00 0.00 0.00 0.00 0.00 0.00 0.00 0.00 0.00 0.00 0.00 0.00 0.00 0.00 0.00 0.00 0.00 0.00 0.00 0.00 0.00 0.00 0.00 0.00 0.00 0.00 0.00 0.00
0.00 0.00 0.00 0.00 0.00 0.00 0.00 0.00 0.00 0.00 0.00 0.00 0.00 0.00 0.00 0.00 0.00 0.00 0.00 0.00 0.00 0.00 0.00 0.00 0.00 0.00 0.00 0.00 0.00 0.00 0.00 0.00 0.00 0.00 0.00 0.00 0.00 0.00 0.00 0.00 0.00 0.00 0.00 0.00
0.00 0.00 0.00 0.00 0.00 0.00 0.00 0.00 0.00 0.00 0.00 0.00 0.00 0.00 0.00 0.00 0.00 0.00 0.00 0.00 0.00 0.00 0.00 0.00 0.00 0.00 0.00 0.00 0.00 0.00 0.00 0.00 0.00 0.00 0.00 0.00 0.00 0.00 0.00 0.00 0.00 0.00 0.00 0.00
0.00 0.00 0.00 0.00 0.00 0.00 0.00 0.00 0.00 0.00 0.00 0.00 0.00 0.00 0.00 0.00 0.00 0.00 0.00 0.00 0.00 0.00 0.00 0.00 0.00 0.00 0.00 0.00 0.00 0.00 0.00 0.00 0.00 0.00 0.00 0.00 0.00 0.00 0.00 0.00 0.00 0.00 0.00 0.00
0.00 0.00 0.00 0.00 0.00 0.00 0.00 0.00 0.00 0.00 0.00 0.00 0.00 0.00 0.00 0.00 0.00 0.00 0.00 0.00 0.00 0.00 0.00 0.00 0.00 0.00 0.00 0.00 0.00 0.00 0.00 0.00 0.00 0.00 0.00 0.00 0.00 0.00 0.00 0.00 0.00 0.00 0.00 0.00
0.00 0.00 0.00 0.00 0.00 0.00 0.00 0.00 0.00 0.00 0.00 0.00 0.00 0.00 0.00 0.00 0.00 0.00 0.00 0.00 0.00 0.00 0.00 0.00 0.00 0.00 0.00 0.00 0.00 0.00 0.00 0.00 0.00 0.00 0.00 0.00 0.00 0.00 0.00 0.00 0.00 0.00 0.00 0.00
MSLP
1014.32 1015.57 1016.65 1017.54 1018.23 1018.76 1019.17 1019.54 1019.92 1020.32 1020.75 1021.18 1021.57 1021.89 1022.10 1022.19 1022.15 1022.01 1021.80 1021.53 1021.23 1020.92 1020.61 1020.29 1019.95 1019.59 1019.19 1018.76 1018.31 1017.84 1017.36 1016.88 1016.42 1015.97 1015.54 1015.12 1014.71 1014.31 1013.92 1013.56 1013.23 1012.95 1012.72 1012.56
1015.52 1016.62 1017.53 1018.23 1018.75 1019.14 1019.48 1019.82 1020.20 1020.63 1021.09 1021.54 1021.94 1022.23 1022.39 1022.40 1022.29 1022.09 1021.83 1021.53 1021.24 1020.95 1020.66 1020.37 1020.04 1019.67 1019.26 1018.82 1018.35 1017.87 1017.40 1016.96 1016.55 1016.15 1015.76 1015.38 1014.98 1014.56 1014.14 1013.73 1013.34 1013.00 1012.73 1012.54
1016.60 1017.54 1018.26 1018.79 1019.17 1019.47 1019.77 1020.12 1020.53 1021.00 1021.49 1021.94 1022.29 1022.52 1022.58 1022.49 1022.29 1022.01 1021.69 1021.39 1021.11 1020.86 1020.62 1020.36 1020.07 1019.72 1019.31 1018.86 1018.38 1017.91 1017.47 1017.06 1016.69 1016.35 1016.02 1015.67 1015.29 1014.87 1014.42 1013.95 1013.51 1013.11 1012.78 1012.54
1017.49 1018.25 1018.80 1019.19 1019.48 1019.75 1020.07 1020.46 1020.94 1021.46 1021.96 1022.39 1022.68 1022.79 1022.72 1022.49 1022.16 1021.78 1021.41 1021.10 1020.85 1020.65 1020.47 1020.27 1020.03 1019.71 1019.32 1018.88 1018.40 1017.94 1017.52 1017.15 1016.83 1016.55 1016.27 1015.97 1015.61 1015.19 1014.72 1014.22 1013.72 1013.26 1012.87 1012.57
1018.14 1018.72 1019.13 1019.43 1019.69 1019.99 1020.38 1020.87 1021.43 1022.02 1022.53 1022.92 1023.10 1023.07 1022.83 1022.43 1021.95 1021.47 1021.04 1020.71 1020.49 1020.35 1020.24 1020.12 1019.94 1019.66 1019.30 1018.87 1018.40 1017.95 1017.54 1017.21 1016.94 1016.71 1016.49 1016.24 1015.92 1015.52 1015.04 1014.51 1013.97 1013.46 1013.01 1012.65
1018.59 1019.00 1019.29 1019.54 1019.83 1020.21 1020.72 1021.34 1022.01 1022.66 1023.19 1023.51 1023.57 1023.38 1022.95 1022.37 1021.73 1021.12 1020.63 1020.29 1020.09 1020.01 1019.98 1019.93 1019.82 1019.59 1019.25 1018.84 1018.38 1017.93 1017.55 1017.24 1017.01 1016.84 1016.68 1016.48 1016.20 1015.83 1015.37 1014.83 1014.27 1013.72 1013.23 1012.81
1018.86 1019.13 1019.34 1019.59 1019.94 1020.44 1021.09 1021.86 1022.65 1023.36 1023.88 1024.13 1024.06 1023.69 1023.07 1022.30 1021.51 1020.79 1020.23 1019.87 1019.71 1019.68 1019.72 1019.75 1019.69 1019.51 1019.20 1018.80 1018.35 1017.91 1017.53 1017.25 1017.05 1016.93 1016.81 1016.67 1016.45 1016.12 1015.69 1015.17 1014.60 1014.04 1013.52 1013.06
1019.02 1019.18 1019.36 1019.63 1020.06 1020.69 1021.49 1022.40 1023.29 1024.04 1024.54 1024.71 1024.51 1023.97 1023.17 1022.24 1021.30 1020.49 1019.88 1019.52 1019.37 1019.39 1019.49 1019.58 1019.57 1019.42 1019.14 1018.75 1018.30 1017.86 1017.50 1017.23 1017.06 1016.97 1016.91 1016.82 1016.65 1016.38 1015.99 1015.51 1014.97 1014.41 1013.88 1013.41
1019.13 1019.22 1019.38 1019.70 1020.23 1020.98 1021.90 1022.91 1023.86 1024.62 1025.08 1025.15 1024.83 1024.14 1023.20 1022.14 1021.11 1020.23 1019.59 1019.22 1019.10 1019.16 1019.30 1019.42 1019.45 1019.33 1019.06 1018.67 1018.23 1017.80 1017.44 1017.19 1017.05 1016.99 1016.97 1016.92 1016.81 1016.59 1016.26 1015.82 1015.32 1014.80 1014.29 1013.81
1019.20 1019.26 1019.44 1019.81 1020.42 1021.26 1022.27 1023.32 1024.29 1025.02 1025.41 1025.38 1024.94 1024.15 1023.11 1021.97 1020.88 1019.98 1019.33 1018.98 1018.88 1018.96 1019.12 1019.26 1019.30 1019.19 1018.93 1018.55 1018.12 1017.70 1017.35 1017.12 1017.00 1016.96 1016.97 1016.97 1016.91 1016.74 1016.46 1016.09 1015.64 1015.16 1014.68 1014.22
1019.24 1019.32 1019.53 1019.96 1020.63 1021.51 1022.53 1023.57 1024.48 1025.14 1025.43 1025.31 1024.78 1023.92 1022.83 1021.67 1020.59 1019.70 1019.09 1018.75 1018.67 1018.76 1018.93 1019.06 1019.09 1018.98 1018.72 1018.35 1017.94 1017.54 1017.21 1017.00 1016.91 1016.90 1016.93 1016.96 1016.93 1016.81 1016.58 1016.26 1015.86 1015.43 1015.00 1014.57
1019.24 1019.37 1019.64 1020.12 1020.80 1021.67 1022.64 1023.59 1024.40 1024.94 1025.12 1024.90 1024.32 1023.43 1022.35 1021.23 1020.21 1019.38 1018.82 1018.52 1018.46 1018.54 1018.69 1018.80 1018.81 1018.68 1018.42 1018.07 1017.68 1017.31 1017.02 1016.85 1016.77 1016.79 1016.85 1016.89 1016.89 1016.79 1016.60 1016.33 1015.98 1015.60 1015.21 1014.83
1019.22 1019.42 1019.74 1020.24 1020.90 1021.70 1022.56 1023.38 1024.03 1024.42 1024.47 1024.18 1023.55 1022.68 1021.67 1020.65 1019.73 1019.00 1018.51 1018.26 1018.21 1018.28 1018.39 1018.46 1018.43 1018.29 1018.03 1017.70 1017.35 1017.03 1016.79 1016.65 1016.62 1016.65 1016.72 1016.78 1016.78 1016.70 1016.54 1016.29 1015.99 1015.66 1015.31 1014.97
1019.21 1019.48 1019.83 1020.32 1020.92 1021.60 1022.30 1022.93 1023.39 1023.61 1023.54 1023.17 1022.54 1021.73 1020.82 1019.93 1019.15 1018.55 1018.15 1017.96 1017.91 1017.96 1018.03 1018.05 1017.99 1017.82 1017.57 1017.28 1016.97 1016.72 1016.54 1016.45 1016.45 1016.51 1016.59 1016.64 1016.64 1016.57 1016.41 1016.19 1015.92 1015.63 1015.33 1015.03
1019.25 1019.56 1019.93 1020.36 1020.85 1021.38 1021.88 1022.29 1022.54 1022.58 1022.39 1021.97 1021.36 1020.63 1019.85 1019.13 1018.51 1018.04 1017.75 1017.61 1017.58 1017.60 1017.63 1017.60 1017.50 1017.33 1017.09 1016.84 1016.60 1016.41 1016.30 1016.27 1016.31 1016.38 1016.46 1016.51 1016.50 1016.42 1016.27 1016.07 1015.83 1015.57 1015.30 1015.04
1019.39 1019.72 1020.05 1020.39 1020.74 1021.08 1021.35 1021.53 1021.56 1021.43 1021.13 1020.67 1020.09 1019.46 1018.84 1018.27 1017.82 1017.50 1017.31 1017.22 1017.21 1017.21 1017.20 1017.14 1017.01 1016.84 1016.64 1016.43 1016.26 1016.15 1016.11 1016.14 1016.21 1016.30 1016.38 1016.41 1016.39 1016.30 1016.15 1015.96 1015.75 1015.52 1015.29 1015.07
1019.67 1019.96 1020.22 1020.44 1020.62 1020.74 1020.78 1020.72 1020.55 1020.25 1019.85 1019.37 1018.84 1018.31 1017.82 1017.42 1017.13 1016.93 1016.84 1016.81 1016.80 1016.80 1016.76 1016.68 1016.55 1016.39 1016.23 1016.09 1015.99 1015.95 1015.98 1016.06 1016.16 1016.26 1016.33 1016.35 1016.31 1016.21 1016.07 1015.90 1015.71 1015.52 1015.33 1015.14
1020.07 1020.29 1020.43 1020.49 1020.49 1020.39 1020.21 1019.94 1019.58 1019.15 1018.67 1018.17 1017.68 1017.24 1016.88 1016.61 1016.44 1016.36 1016.34 1016.36 1016.37 1016.37 1016.32 1016.24 1016.12 1015.99 1015.88 1015.80 1015.78 1015.81 1015.90 1016.01 1016.13 1016.23 1016.29 1016.30 1016.25 1016.15 1016.02 1015.87 1015.72 1015.57 1015.42 1015.27
1020.51 1020.62 1020.63 1020.53 1020.35 1020.06 1019.69 1019.24 1018.73 1018.18 1017.64 1017.13 1016.67 1016.30 1016.03 1015.87 1015.79 1015.79 1015.83 1015.88 1015.91 1015.91 1015.88 1015.80 1015.72 1015.63 1015.57 1015.56 1015.60 1015.69 1015.82 1015.96 1016.09 1016.19 1016.24 1016.24 1016.18 1016.09 1015.97 1015.85 1015.74 1015.64 1015.54 1015.42
1020.87 1020.86 1020.74 1020.51 1020.17 1019.73 1019.21 1018.63 1018.01 1017.40 1016.81 1016.29 1015.86 1015.54 1015.33 1015.22 1015.20 1015.24 1015.30 1015.37 1015.42 1015.43 1015.41 1015.36 1015.31 1015.27 1015.27 1015.32 1015.41 1015.54 1015.70 1015.85 1015.98 1016.07 1016.11 1016.10 1016.05 1015.97 1015.88 1015.80 1015.73 1015.68 1015.63 1015.55
1021.02 1020.92 1020.69 1020.35 1019.91 1019.37 1018.77 1018.12 1017.45 1016.80 1016.21 1015.69 1015.27 1014.97 1014.78 1014.69 1014.69 1014.73 1014.79 1014.86 1014.90 1014.92 1014.91 1014.89 1014.88 1014.89 1014.93 1015.02 1015.15 1015.31 1015.48 1015.63 1015.76 1015.84 1015.87 1015.86 1015.81 1015.76 1015.71 1015.67 1015.65 1015.65 1015.64 1015.60
1020.86 1020.69 1020.41 1020.02 1019.54 1018.97 1018.36 1017.70 1017.04 1016.41 1015.83 1015.32 1014.92 1014.62 1014.42 1014.32 1014.29 1014.30 1014.33 1014.37 1014.40 1014.41 1014.41 1014.41 1014.42 1014.46 1014.53 1014.65 1014.79 1014.96 1015.12 1015.27 1015.38 1015.46 1015.49 1015.49 1015.47 1015.44 1015.43 1015.44 1015.47 1015.50 1015.53 1015.52
1020.37 1020.18 1019.89 1019.51 1019.06 1018.54 1017.97 1017.38 1016.78 1016.20 1015.67 1015.19 1014.80 1014.49 1014.27 1014.12 1014.04 1013.99 1013.97 1013.96 1013.95 1013.94 1013.93 1013.93 1013.94 1013.99 1014.07 1014.19 1014.33 1014.48 1014.63 1014.76 1014.87 1014.94 1014.98 1015.00 1015.01 1015.03 1015.06 1015.11 1015.18 1015.25 1015.30 1015.31
1019.59 1019.43 1019.18 1018.87 1018.50 1018.09 1017.64 1017.15 1016.66 1016.18 1015.71 1015.28 1014.90 1014.58 1014.33 1014.12 1013.97 1013.85 1013.76 1013.68 1013.62 1013.56 1013.51 1013.48 1013.48 1013.51 1013.57 1013.66 1013.77 1013.89 1014.02 1014.13 1014.23 1014.30 1014.36 1014.41 1014.47 1014.53 1014.61 1014.70 1014.81 1014.90 1014.97 1014.99
1018.65 1018.54 1018.39 1018.19 1017.95 1017.68 1017.37 1017.04 1016.69 1016.32 1015.94 1015.57 1015.22 1014.89 1014.59 1014.33 1014.11 1013.91 1013.73 1013.58 1013.44 1013.32 1013.22 1013.14 1013.08 1013.06 1013.06 1013.10 1013.16 1013.24 1013.32 1013.41 1013.50 1013.59 1013.67 1013.76 1013.86 1013.98 1014.11 1014.24 1014.37 1014.49 1014.56 1014.59
1017.72 1017.69 1017.64 1017.57 1017.47 1017.36 1017.22 1017.05 1016.84 1016.60 1016.32 1016.01 1015.69 1015.37 1015.05 1014.74 1014.45 1014.18 1013.92 1013.69 1013.47 1013.27 1013.09 1012.93 1012.80 1012.69 1012.61 1012.57 1012.55 1012.56 1012.60 1012.65 1012.73 1012.82 1012.93 1013.07 1013.22 1013.38 1013.56 1013.73 1013.89 1014.02 1014.11 1014.13
Thickness
5763 5747 5734 5740 5742 5738 5730 5719 5710 5709 5712 5701 5691 5685 5683 5683 5679 5673 5670 5668 5667 5667 5667 5667 5666 5665 5663 5662 5661 5661 5662 5663 5665 5666 5669 5671 5674 5678 5682 5686 5690 5694 5698 5702
5742 5733 5742 5743 5738 5731 5721 5710 5704 5704 5706 5696 5684 5680 5682 5681 5678 5674 5670 5667 5666 5665 5664 5663 5662 5661 5659 5658 5657 5657 5657 5658 5658 5659 5660 5662 5666 5669 5673 5677 5681 5685 5689 5693
5732 5733 5743 5736 5728 5720 5713 5706 5702 5697 5693 5688 5680 5673 5676 5679 5679 5675 5672 5669 5667 5665 5661 5660 5659 5658 5657 5655 5655 5654 5654 5654 5654 5654 5655 5658 5660 5663 5666 5668 5672 5676 5679 5684
5728 5735 5734 5725 5719 5717 5705 5711 5707 5698 5682 5670 5675 5655 5670 5672 5672 5672 5670 5667 5665 5664 5662 5660 5658 5657 5656 5655 5654 5653 5652 5652 5651 5651 5650 5650 5650 5652 5655 5658 5663 5667 5671 5675
5721 5727 5724 5717 5717 5718 5709 5710 5703 5694 5681 5667 5666 5656 5662 5670 5666 5668 5669 5668 5667 5665 5663 5661 5660 5658 5658 5656 5654 5653 5651 5650 5649 5648 5646 5646 5646 5647 5650 5653 5656 5660 5664 5668
5721 5728 5726 5721 5721 5718 5712 5699 5688 5676 5667 5657 5666 5654 5658 5663 5669 5673 5672 5670 5669 5667 5665 5663 5662 5661 5659 5658 5655 5653 5650 5649 5647 5646 5645 5643 5643 5644 5646 5647 5650 5653 5657 5660
5711 5716 5722 5725 5714 5709 5702 5683 5663 5662 5650 5653 5667 5659 5663 5680 5680 5679 5675 5672 5671 5668 5665 5663 5662 5661 5659 5658 5656 5653 5650 5648 5646 5645 5643 5642 5641 5641 5641 5642 5643 5646 5649 5652
5700 5696 5712 5718 5711 5702 5695 5684 5662 5656 5647 5651 5664 5660 5675 5688 5689 5685 5681 5677 5673 5670 5667 5666 5665 5663 5661 5659 5657 5654 5650 5647 5646 5644 5642 5641 5640 5638 5638 5638 5639 5640 5642 5644
5699 5697 5714 5719 5718 5710 5693 5680 5678 5659 5658 5650 5656 5668 5682 5689 5687 5684 5681 5677 5674 5672 5671 5669 5668 5666 5663 5661 5659 5655 5652 5649 5646 5644 5642 5641 5639 5637 5636 5636 5636 5636 5637 5639
5710 5698 5707 5715 5715 5709 5702 5684 5669 5661 5655 5648 5654 5661 5670 5686 5684 5683 5680 5677 5676 5675 5673 5672 5670 5668 5666 5664 5661 5658 5654 5650 5647 5644 5642 5640 5638 5636 5635 5634 5633 5633 5634 5634
5715 5699 5698 5705 5703 5700 5695 5684 5668 5656 5656 5645 5645 5660 5688 5692 5693 5687 5684 5682 5680 5678 5676 5674 5672 5671 5669 5667 5664 5660 5657 5653 5649 5646 5643 5640 5638 5636 5634 5632 5631 5630 5630 5630
5707 5693 5687 5700 5709 5711 5705 5694 5674 5665 5660 5648 5643 5660 5700 5697 5696 5693 5690 5687 5685 5682 5680 5677 5675 5673 5671 5669 5666 5663 5659 5655 5652 5648 5644 5641 5638 5636 5633 5631 5629 5628 5627 5627
5710 5696 5686 5690 5695 5704 5702 5694 5683 5668 5655 5644 5646 5668 5701 5700 5700 5697 5694 5691 5688 5686 5683 5681 5678 5676 5674 5672 5669 5666 5663 5659 5655 5651 5646 5642 5639 5636 5633 5630 5628 5627 5625 5624
5717 5700 5694 5693 5694 5701 5700 5696 5684 5676 5661 5656 5661 5676 5695 5701 5700 5699 5697 5695 5691 5688 5686 5683 5680 5679 5677 5675 5673 5670 5667 5663 5658 5653 5649 5644 5640 5637 5633 5630 5628 5626 5623 5621
5717 5706 5709 5709 5713 5709 5706 5703 5691 5685 5680 5674 5683 5684 5698 5706 5707 5706 5704 5699 5695 5692 5690 5687 5684 5683 5681 5679 5677 5674 5670 5667 5662 5656 5651 5647 5642 5638 5635 5631 5628 5625 5622 5620
5714 5710 5712 5712 5714 5712 5708 5709 5701 5694 5693 5688 5688 5692 5711 5713 5712 5710 5707 5703 5699 5696 5695 5693 5690 5687 5685 5682 5680 5677 5674 5669 5664 5659 5654 5649 5644 5640 5635 5631 5628 5624 5621 5617
5707 5708 5702 5699 5705 5712 5707 5716 5709 5706 5703 5701 5697 5707 5719 5719 5717 5715 5713 5707 5704 5702 5700 5697 5694 5691 5689 5686 5683 5680 5677 5672 5667 5662 5657 5652 5646 5641 5636 5632 5628 5624 5620 5616
5708 5700 5689 5691 5704 5702 5717 5732 5726 5719 5717 5712 5713 5717 5721 5721 5723 5721 5719 5714 5710 5708 5705 5702 5699 5696 5693 5691 5687 5683 5679 5674 5669 5664 5659 5654 5648 5643 5638 5633 5628 5624 5619 5615
5712 5703 5688 5683 5689 5696 5719 5732 5729 5724 5723 5729 5721 5724 5725 5725 5723 5722 5727 5722 5718 5715 5712 5708 5704 5700 5696 5693 5689 5684 5680 5675 5670 5665 5661 5656 5651 5645 5640 5634 5629 5624 5619 5615
5704 5701 5687 5681 5692 5694 5716 5735 5739 5730 5718 5733 5731 5729 5725 5720 5709 5715 5730 5727 5723 5720 5715 5711 5707 5703 5698 5695 5691 5685 5680 5675 5672 5668 5664 5659 5653 5647 5642 5636 5631 5626 5620 5615
5698 5689 5684 5680 5685 5693 5721 5733 5734 5710 5711 5735 5736 5733 5722 5717 5719 5727 5731 5729 5726 5722 5719 5714 5709 5704 5701 5697 5691 5686 5682 5678 5676 5672 5666 5661 5656 5650 5644 5639 5633 5627 5622 5616
5694 5685 5681 5676 5682 5697 5731 5729 5720 5720 5732 5735 5736 5734 5726 5724 5727 5727 5728 5728 5725 5721 5719 5714 5708 5705 5702 5698 5692 5688 5684 5683 5679 5673 5668 5663 5658 5653 5649 5642 5636 5630 5623 5617
5698 5701 5695 5696 5703 5718 5721 5722 5723 5725 5726 5730 5731 5733 5729 5726 5725 5725 5725 5724 5722 5720 5717 5714 5709 5705 5702 5698 5694 5689 5689 5686 5679 5674 5669 5665 5660 5655 5650 5644 5638 5632 5626 5619
5703 5704 5699 5698 5711 5715 5711 5711 5713 5718 5721 5724 5725 5726 5726 5723 5722 5721 5720 5719 5718 5717 5715 5712 5707 5703 5702 5700 5695 5693 5692 5686 5680 5675 5671 5667 5662 5657 5652 5647 5642 5635 5630 5623
5708 5700 5699 5701 5709 5711 5709 5703 5705 5710 5714 5716 5718 5719 5718 5717 5716 5715 5714 5714 5714 5713 5712 5709 5705 5703 5703 5701 5697 5695 5692 5686 5680 5676 5673 5668 5664 5660 5655 5651 5646 5641 5636 5630
5695 5697 5699 5700 5699 5697 5695 5696 5698 5701 5703 5704 5705 5706 5707 5707 5707 5708 5708 5708 5708 5708 5707 5705 5703 5702 5702 5701 5698 5697 5693 5687 5682 5677 5674 5670 5666 5662 5657 5653 5649 5646 5642 5638